Location: Spring Creek
(38.2870°N, 100.2160°W)
Time: 08:17:38
(UTC+00:00)

Cosmos 1814 Rocket - Pass Details

Date: 08 May 2021
Orbit: 745 x 786 km, 74.1° (Epoch: 21 June)

Event Time Altitude Azimuth Distance (km) Brightness Sun altitude
Rises 02:50:53 0° 337° (NNW) 3,238 8.3 -13.3°
Reaches altitude 10° 02:53:19 10° 334° (NNW) 2,301 7.5 -13.7°
Maximum altitude 02:58:25 59° 256° (WSW) 873 4.5 -14.5°
Drops below altitude 10° 03:03:27 10° 177° (S) 2,263 6.1 -15.3°
Enters shadow 03:03:29 10° 177° (S) 2,276 6.1 -15.3°
